User: anonymous
Location: Houston
(29.7630°N, 95.3630°W)
Time: 23:26:42
(UTC-05:00)
Language:

Saudisat 1A - Orbit

View from above orbital plane
View from above orbital plane
View from above satellite
View from above satellite

Ground track
Ground track

The orbit data is extracted from the following two-line orbital elements,

1 26546U 00057B   14264.32753416  .00001828  00000-0  21362-3 0  3757
2 26546 064.5568 221.3903 0005270 284.4960 075.5564 14.88214280757702
Epoch (UTC): 21 September 2014 07:51:38
Eccentricity: 0.0005270
inclination: 64.5568°
perigee height: 600 km
apogee height: 607 km
right ascension of ascending node: 221.3903°
argument of perigee: 284.4960°
revolutions per day: 14.88214280
mean anomaly at epoch: 75.5564°
orbit number at epoch: 75770

The dashed part of the orbit path shows where the satellite is in the earth's shadow,  

DLR